Weather History for Spirit of St Louis, MO

Change the Weather History Date:

Wednesday, February 20, 2013

  Actual Average Record
Temperature  
Mean Temperature 22 °F -  
Max Temperature 26 °F 45 °F 73 °F (2014)
Min Temperature 18 °F 27 °F 16 °F (2008)
Degree Days  
Heating Degree Days 43    
Moisture  
Dew Point 10 °F    
Average Humidity 59    
Maximum Humidity 68    
Minimum Humidity 51    
Precipitation  
Precipitation 0.00 in - - ()
Sea Level Pressure  
Sea Level Pressure 30.37 in    
Wind  
Wind Speed 5 mph (NNE)    
Max Wind Speed 9 mph    
Max Gust Speed -    
Visibility 10 miles    
Events      
Averages and records for this station are not official NWS values.
T = Trace of Precipitation, MM = Missing Value Source: NWS Daily Summary

Daily Weather History Graph

Daily Weather History Graph

Search for Another Location

Airport:

Trip Planner

Search our weather history database for the weather conditions in past years. The results will help you decide how hot, cold, wet, or windy it might be!

Date:

Astronomy

Feb. 20, 2013 Rise Set
Actual Time 6:46 AM CST 5:46 PM CST
Civil Twilight 6:19 AM CST 6:13 PM CST
Nautical Twilight 5:48 AM CST 6:44 PM CST
Astronomical Twilight 5:18 AM CST 7:15 PM CST
Moon 1:09 PM CST (2/20) 3:05 AM CST (2/20)
Length of Visible Light 11h 53m
Length of Day
10h 59m
Waxing Gibbous, 76% of the Moon is Illuminated
Feb 20
Waxing Gibbous
Feb 25
Full
Mar 4
Last Quarter
Mar 11
New
Mar 19
First Quarter

Hourly Weather History & Observations

Time (CST) Temp. Windchill Dew Point Humidity Pressure Visibility Wind Dir Wind Speed Gust Speed Precip Events Conditions
12:54 AM 21.9 °F 13.4 °F 9.0 °F 58% 30.35 in 10.0 mi WNW 6.9 mph - N/A   Clear
1:54 AM 21.0 °F 14.6 °F 9.0 °F 60% 30.35 in 10.0 mi West 4.6 mph - N/A   Clear
2:54 AM 19.9 °F 13.4 °F 8.1 °F 60% 30.34 in 10.0 mi NNW 4.6 mph - N/A   Clear
3:54 AM 19.9 °F 12.1 °F 7.0 °F 57% 30.34 in 10.0 mi NW 5.8 mph - N/A   Clear
4:54 AM 18.0 °F 11.1 °F 7.0 °F 62% 30.37 in 10.0 mi NW 4.6 mph - N/A   Clear
5:54 AM 18.0 °F 12.7 °F 8.1 °F 65% 30.38 in 10.0 mi NW 3.5 mph - N/A   Clear
6:54 AM 19.0 °F 11.1 °F 8.1 °F 62% 30.39 in 10.0 mi North 5.8 mph - N/A   Clear
7:54 AM 19.9 °F 12.1 °F 9.0 °F 62% 30.42 in 10.0 mi North 5.8 mph - N/A   Mostly Cloudy
8:54 AM 19.4 °F 12.8 °F 8.6 °F 63% 30.41 in 10.0 mi North 4.6 mph - N/A   Overcast
9:54 AM 21.9 °F - 9.0 °F 58% 30.45 in 10.0 mi Calm Calm - N/A   Overcast
10:54 AM 23.0 °F 18.4 °F 10.0 °F 58% 30.45 in 10.0 mi Variable 3.5 mph - N/A   Overcast
11:54 AM 24.1 °F 19.7 °F 10.0 °F 55% 30.43 in 10.0 mi North 3.5 mph - N/A   Clear
12:54 PM 25.0 °F - 9.0 °F 51% 30.43 in 10.0 mi Calm Calm - N/A   Overcast
1:54 PM 26.1 °F 19.4 °F 10.0 °F 51% 30.38 in 10.0 mi Variable 5.8 mph - N/A   Overcast
2:54 PM 26.1 °F 21.9 °F 10.9 °F 53% 30.38 in 10.0 mi East 3.5 mph - N/A   Overcast
3:54 PM 26.1 °F 16.8 °F 12.0 °F 55% 30.35 in 10.0 mi ENE 9.2 mph - N/A   Overcast
4:54 PM 25.0 °F 15.5 °F 10.0 °F 53% 30.34 in 10.0 mi ENE 9.2 mph - N/A   Mostly Cloudy
5:54 PM 25.0 °F 16.3 °F 10.9 °F 55% 30.34 in 10.0 mi ENE 8.1 mph - N/A   Mostly Cloudy
6:54 PM 23.0 °F 14.7 °F 10.9 °F 60% 30.34 in 10.0 mi ENE 6.9 mph - N/A   Mostly Cloudy
7:54 PM 21.9 °F 17.2 °F 10.9 °F 63% 30.35 in 10.0 mi East 3.5 mph - N/A   Partly Cloudy
8:54 PM 24.8 °F 16.9 °F 12.2 °F 59% 30.31 in 10.0 mi ENE 6.9 mph - N/A   Overcast
9:54 PM 24.1 °F 14.4 °F 12.0 °F 60% 30.35 in 10.0 mi East 9.2 mph - N/A   Overcast
10:54 PM 21.2 °F 12.6 °F 12.2 °F 68% 30.31 in 10.0 mi East 6.9 mph - N/A   Scattered Clouds
11:54 PM 21.0 °F - 12.0 °F 68% 30.35 in 10.0 mi Calm Calm - N/A   Clear